Time,TemperatureF,DewpointF,PressureIn,WindDirection,WindDirectionDegrees,WindSpeedMPH,WindSpeedGustMPH,Humidity,HourlyPrecipIn,Conditions,Clouds,dailyrainin,SoftwareType,DateUTC
2016-07-26 00:07:00,60.0,55.0,29.88,NNW,330,0.0,0.0,84,0.00,,,0.00,weatherlink.com 1.10,2016-07-26 07:07:00,
2016-07-26 00:22:00,59.5,55.0,29.88,NNW,330,0.0,0.0,86,0.00,,,0.00,weatherlink.com 1.10,2016-07-26 07:22:00,
2016-07-26 00:37:00,59.4,56.0,29.88,NNW,330,0.0,0.0,88,0.00,,,0.00,weatherlink.com 1.10,2016-07-26 07:37:00,
2016-07-26 00:52:00,59.3,56.0,29.88,NNW,330,0.0,0.0,88,0.00,,,0.00,weatherlink.com 1.10,2016-07-26 07:52:00,
2016-07-26 01:07:00,59.0,56.0,29.87,NNW,330,0.0,0.0,89,0.00,,,0.00,weatherlink.com 1.10,2016-07-26 08:07:00,
2016-07-26 01:22:00,58.6,55.0,29.87,NNW,330,0.0,0.0,89,0.00,,,0.00,weatherlink.com 1.10,2016-07-26 08:22:00,
2016-07-26 01:37:00,58.2,55.0,29.86,NNW,330,0.0,0.0,88,0.00,,,0.00,weatherlink.com 1.10,2016-07-26 08:37:00,
2016-07-26 01:52:00,58.0,54.0,29.86,NNW,330,0.0,0.0,85,0.00,,,0.00,weatherlink.com 1.10,2016-07-26 08:52:00,
2016-07-26 02:07:00,58.0,52.0,29.86,NNW,330,0.0,0.0,80,0.00,,,0.00,weatherlink.com 1.10,2016-07-26 09:07:00,
2016-07-26 02:22:00,58.3,52.0,29.86,NNW,330,0.0,0.0,79,0.00,,,0.00,weatherlink.com 1.10,2016-07-26 09:22:00,
2016-07-26 02:37:00,58.0,52.0,29.86,NNW,330,0.0,0.0,79,0.00,,,0.00,weatherlink.com 1.10,2016-07-26 09:37:00,
2016-07-26 02:53:00,58.4,52.0,29.87,NNW,330,0.0,0.0,78,0.00,,,0.00,weatherlink.com 1.10,2016-07-26 09:53:00,
2016-07-26 03:08:00,59.3,52.0,29.87,NNW,330,0.0,0.0,76,0.00,,,0.00,weatherlink.com 1.10,2016-07-26 10:08:00,
2016-07-26 03:22:00,59.0,53.0,29.87,NNW,330,0.0,0.0,79,0.00,,,0.00,weatherlink.com 1.10,2016-07-26 10:22:00,
2016-07-26 03:37:00,59.4,54.0,29.87,NNW,333,0.0,0.0,83,0.00,,,0.00,weatherlink.com 1.10,2016-07-26 10:37:00,
2016-07-26 03:52:00,58.6,54.0,29.87,NNW,333,0.0,0.0,83,0.00,,,0.00,weatherlink.com 1.10,2016-07-26 10:52:00,
2016-07-26 04:07:00,57.8,53.0,29.87,NNW,333,0.0,0.0,85,0.00,,,0.00,weatherlink.com 1.10,2016-07-26 11:07:00,
2016-07-26 04:22:00,57.4,54.0,29.87,NNW,333,0.0,0.0,87,0.00,,,0.00,weatherlink.com 1.10,2016-07-26 11:22:00,
2016-07-26 04:37:00,57.4,54.0,29.87,NNW,333,0.0,0.0,88,0.00,,,0.00,weatherlink.com 1.10,2016-07-26 11:37:00,
2016-07-26 04:52:00,57.2,54.0,29.87,NNW,333,0.0,0.0,88,0.00,,,0.00,weatherlink.com 1.10,2016-07-26 11:52:00,
2016-07-26 05:07:00,56.9,54.0,29.87,NNW,333,0.0,0.0,89,0.00,,,0.00,weatherlink.com 1.10,2016-07-26 12:07:00,
2016-07-26 05:22:00,56.5,54.0,29.86,NNW,333,0.0,0.0,90,0.00,,,0.00,weatherlink.com 1.10,2016-07-26 12:22:00,
2016-07-26 05:37:00,56.3,54.0,29.86,NNW,333,0.0,0.0,90,0.00,,,0.00,weatherlink.com 1.10,2016-07-26 12:37:00,
2016-07-26 05:52:00,56.6,54.0,29.87,NNW,333,0.0,0.0,91,0.00,,,0.00,weatherlink.com 1.10,2016-07-26 12:52:00,
2016-07-26 06:07:00,56.4,54.0,29.87,NNW,333,0.0,0.0,92,0.00,,,0.00,weatherlink.com 1.10,2016-07-26 13:07:00,
2016-07-26 06:22:00,57.0,55.0,29.87,NNW,333,0.0,0.0,93,0.00,,,0.00,weatherlink.com 1.10,2016-07-26 13:22:00,
2016-07-26 06:37:00,56.5,54.0,29.88,NNW,333,0.0,0.0,92,0.00,,,0.00,weatherlink.com 1.10,2016-07-26 13:37:00,
2016-07-26 06:52:00,56.3,54.0,29.88,NNW,333,0.0,0.0,92,0.00,,,0.00,weatherlink.com 1.10,2016-07-26 13:52:00,
2016-07-26 07:07:00,56.1,54.0,29.88,NNW,333,0.0,0.0,92,0.00,,,0.00,weatherlink.com 1.10,2016-07-26 14:07:00,
2016-07-26 07:22:00,56.6,55.0,29.89,NNW,333,0.0,0.0,93,0.00,,,0.00,weatherlink.com 1.10,2016-07-26 14:22:00,
2016-07-26 07:38:00,57.8,56.0,29.89,NNW,333,0.0,0.0,94,0.00,,,0.00,weatherlink.com 1.10,2016-07-26 14:38:00,
2016-07-26 07:53:00,59.2,57.0,29.89,NNW,333,0.0,0.0,93,0.00,,,0.00,weatherlink.com 1.10,2016-07-26 14:53:00,
2016-07-26 08:08:00,60.8,58.0,29.89,NNW,333,0.0,0.0,90,0.00,,,0.00,weatherlink.com 1.10,2016-07-26 15:08:00,
2016-07-26 08:23:00,63.3,59.0,29.89,NNW,341,0.0,0.0,86,0.00,,,0.00,weatherlink.com 1.10,2016-07-26 15:23:00,
2016-07-26 08:38:00,64.7,59.0,29.90,NNW,348,0.0,0.0,81,0.00,,,0.00,weatherlink.com 1.10,2016-07-26 15:38:00,
2016-07-26 08:53:00,65.7,58.0,29.90,North,354,0.0,0.0,77,0.00,,,0.00,weatherlink.com 1.10,2016-07-26 15:53:00,
2016-07-26 09:08:00,67.7,60.0,29.90,SSE,159,0.0,1.0,75,0.00,,,0.00,weatherlink.com 1.10,2016-07-26 16:08:00,
2016-07-26 09:23:00,69.6,59.0,29.90,SSE,154,0.0,1.0,70,0.00,,,0.00,weatherlink.com 1.10,2016-07-26 16:23:00,
2016-07-26 09:38:00,71.8,59.0,29.91,SE,142,1.0,1.0,65,0.00,,,0.00,weatherlink.com 1.10,2016-07-26 16:38:00,
2016-07-26 09:53:00,74.0,60.0,29.90,North,354,0.0,2.0,62,0.00,,,0.00,weatherlink.com 1.10,2016-07-26 16:53:00,
2016-07-26 10:08:00,75.7,60.0,29.90,NNW,335,0.0,2.0,59,0.00,,,0.00,weatherlink.com 1.10,2016-07-26 17:08:00,
2016-07-26 10:23:00,78.3,61.0,29.90,NNW,340,0.0,1.0,55,0.00,,,0.00,weatherlink.com 1.10,2016-07-26 17:23:00,
2016-07-26 10:38:00,82.0,61.0,29.89,NNW,339,1.0,2.0,49,0.00,,,0.00,weatherlink.com 1.10,2016-07-26 17:38:00,
2016-07-26 10:53:00,82.8,61.0,29.90,NNW,341,1.0,2.0,47,0.00,,,0.00,weatherlink.com 1.10,2016-07-26 17:53:00,
2016-07-26 11:09:00,85.3,58.0,29.89,North,351,1.0,2.0,40,0.00,,,0.00,weatherlink.com 1.10,2016-07-26 18:09:00,
2016-07-26 11:23:00,87.7,54.0,29.89,North,1,1.0,3.0,32,0.00,,,0.00,weatherlink.com 1.10,2016-07-26 18:23:00,
2016-07-26 11:39:00,88.1,52.0,29.89,NNE,13,0.0,3.0,29,0.00,,,0.00,weatherlink.com 1.10,2016-07-26 18:39:00,
2016-07-26 11:54:00,91.1,52.0,29.88,NNW,348,1.0,2.0,26,0.00,,,0.00,weatherlink.com 1.10,2016-07-26 18:54:00,
2016-07-26 12:09:00,92.5,53.0,29.88,NW,316,2.0,3.0,26,0.00,,,0.00,weatherlink.com 1.10,2016-07-26 19:09:00,
2016-07-26 12:24:00,93.5,53.0,29.88,NNW,329,0.0,3.0,25,0.00,,,0.00,weatherlink.com 1.10,2016-07-26 19:24:00,